This is the latest recevied weather packets stored in our database for station/object K6GMW. If no packets are shown the sender has not sent any weather packets the latest 10 day(s).
| Time | Temp. | Humidity | Pressure | Rain* | Wind** | Luminosity | Snow |
|---|---|---|---|---|---|---|---|
| 1788178393 | 22.78° C | 82% | 1017.8 hPa | 0 mm | - | 21 W/m² | - |
| 1788178088 | 22.78° C | 82% | 1017.6 hPa | 0 mm | - | 16 W/m² | - |
| 1788177782 | 22.78° C | 82% | 1017.7 hPa | 0 mm | - | 11 W/m² | - |
| 1788177478 | 22.78° C | 82% | 1017.7 hPa | 0 mm | - | 7 W/m² | - |
| 1788177174 | 22.78° C | 81% | 1017.7 hPa | 0 mm | - | 4 W/m² | - |
| 1788176873 | 23.33° C | 81% | 1017.3 hPa | 0 mm | - | 2 W/m² | - |
| 1788176573 | 23.33° C | 80% | 1017.5 hPa | 0 mm | - | 1 W/m² | - |
| 1788176268 | 23.33° C | 80% | 1017.5 hPa | 0 mm | - | 0 W/m² | - |
| 1788175963 | 23.33° C | 79% | 1017.4 hPa | 0 mm | - | 0 W/m² | - |
| 1788175662 | 23.33° C | 79% | 1017.3 hPa | 0 mm | - | 0 W/m² | - |
| 1788175357 | 23.33° C | 79% | 1017.4 hPa | 0 mm | - | 0 W/m² | - |
| 1788175053 | 23.33° C | 80% | 1017.3 hPa | 0 mm | - | 0 W/m² | - |
| 1788174749 | 23.89° C | 79% | 1017.2 hPa | 0 mm | - | 0 W/m² | - |
| 1788174445 | 23.89° C | 79% | 1017.2 hPa | 0 mm | - | 0 W/m² | - |
| 1788174140 | 23.89° C | 79% | 1017.3 hPa | 0 mm | - | 0 W/m² | - |
| 1788173838 | 23.89° C | 79% | 1017.2 hPa | 0 mm | - | 0 W/m² | - |
| 1788173534 | 23.89° C | 78% | 1017.3 hPa | 0 mm | - | 0 W/m² | - |
| 1788173229 | 23.89° C | 78% | 1017.3 hPa | 0 mm | - | 0 W/m² | - |
| 1788172926 | 23.89° C | 78% | 1017.2 hPa | 0 mm | - | 0 W/m² | - |
| 1788172625 | 23.89° C | 77% | 1017.1 hPa | 0 mm | - | 0 W/m² | - |
| 1788172321 | 24.44° C | 77% | 1017.2 hPa | 0 mm | - | 0 W/m² | - |
| 1788172021 | 24.44° C | 76% | 1017 hPa | 0 mm | - | 0 W/m² | - |
| 1788171715 | 24.44° C | 76% | 1017.1 hPa | 0 mm | - | 0 W/m² | - |
| 1788171411 | 24.44° C | 76% | 1017 hPa | 0 mm | - | 0 W/m² | - |
| 1788171107 | 24.44° C | 76% | 1017.1 hPa | 0 mm | - | 0 W/m² | - |
* Rain latest hour (hover to see other rain measurements)
** Current wind speed in m/s (hover to see current wind gust speed)